Time,TemperatureF,DewpointF,PressureIn,WindDirection,WindDirectionDegrees,WindSpeedMPH,WindSpeedGustMPH,Humidity,HourlyPrecipIn,Conditions,Clouds,dailyrainin,SoftwareType,DateUTC
2013-05-13 00:01:00,59.0,56.0,30.04,SSE,167,0.0,-999.0,91,-99.99,,,-99.99,,2013-05-13 07:01:00,
2013-05-13 00:11:00,59.0,56.0,30.04,SSE,167,0.0,-999.0,91,-99.99,,,-99.99,,2013-05-13 07:11:00,
2013-05-13 00:21:00,59.0,56.0,30.05,SSE,161,0.0,-999.0,91,-99.99,,,-99.99,,2013-05-13 07:21:00,
2013-05-13 00:31:00,59.0,56.0,30.05,South,179,0.0,-999.0,91,-99.99,,,-99.99,,2013-05-13 07:31:00,
2013-05-13 00:41:00,59.0,56.0,30.05,NE,43,0.0,-999.0,91,-99.99,,,-99.99,,2013-05-13 07:41:00,
2013-05-13 00:52:00,59.0,56.0,30.05,NE,43,0.0,-999.0,91,-99.99,,,-99.99,,2013-05-13 07:52:00,
2013-05-13 01:01:00,58.0,55.0,30.05,SE,138,0.0,-999.0,91,-99.99,,,-99.99,,2013-05-13 08:01:00,
2013-05-13 01:11:00,58.0,55.0,30.05,SE,138,0.0,-999.0,91,-99.99,,,-99.99,,2013-05-13 08:11:00,
2013-05-13 01:21:00,58.0,56.0,30.05,SSE,168,0.0,-999.0,92,-99.99,,,-99.99,,2013-05-13 08:21:00,
2013-05-13 01:31:00,58.0,56.0,30.05,SSE,168,0.0,-999.0,92,-99.99,,,-99.99,,2013-05-13 08:31:00,
2013-05-13 01:41:00,58.0,56.0,30.05,SSE,168,0.0,-999.0,92,-99.99,,,-99.99,,2013-05-13 08:41:00,
2013-05-13 01:52:00,58.0,56.0,30.04,SSW,192,0.0,-999.0,93,-99.99,,,-99.99,,2013-05-13 08:52:00,
2013-05-13 02:01:00,57.0,55.0,30.04,SSW,192,0.0,-999.0,94,-99.99,,,-99.99,,2013-05-13 09:01:00,
2013-05-13 02:11:00,57.0,55.0,30.04,SSW,192,0.0,-999.0,94,-99.99,,,-99.99,,2013-05-13 09:11:00,
2013-05-13 02:21:00,57.0,55.0,30.04,West,281,0.0,-999.0,94,-99.99,,,-99.99,,2013-05-13 09:21:00,
2013-05-13 02:32:00,57.0,56.0,30.04,West,280,0.0,-999.0,95,-99.99,,,-99.99,,2013-05-13 09:32:00,
2013-05-13 02:42:00,57.0,56.0,30.04,West,280,0.0,-999.0,95,-99.99,,,-99.99,,2013-05-13 09:42:00,
2013-05-13 02:52:00,57.0,55.0,30.05,SSW,196,0.0,-999.0,94,-99.99,,,-99.99,,2013-05-13 09:52:00,
2013-05-13 03:02:00,57.0,55.0,30.05,SSW,194,0.0,-999.0,94,-99.99,,,-99.99,,2013-05-13 10:02:00,
2013-05-13 03:12:00,57.0,55.0,30.05,SSW,194,0.0,-999.0,94,-99.99,,,-99.99,,2013-05-13 10:12:00,
2013-05-13 03:22:00,56.0,54.0,30.04,SSW,194,0.0,-999.0,94,-99.99,,,-99.99,,2013-05-13 10:22:00,
2013-05-13 03:32:00,56.0,55.0,30.04,SSW,194,0.0,-999.0,95,-99.99,,,-99.99,,2013-05-13 10:32:00,
2013-05-13 03:42:00,56.0,55.0,30.04,SSW,194,0.0,-999.0,95,-99.99,,,-99.99,,2013-05-13 10:42:00,
2013-05-13 03:52:00,56.0,55.0,30.04,SSW,200,0.0,-999.0,95,-99.99,,,-99.99,,2013-05-13 10:52:00,
2013-05-13 04:02:00,56.0,55.0,30.05,SSW,200,0.0,-999.0,95,-99.99,,,-99.99,,2013-05-13 11:02:00,
2013-05-13 04:12:00,56.0,55.0,30.05,SSW,200,0.0,-999.0,95,-99.99,,,-99.99,,2013-05-13 11:12:00,
2013-05-13 04:21:00,56.0,55.0,30.03,SSW,200,0.0,-999.0,96,-99.99,,,-99.99,,2013-05-13 11:21:00,
2013-05-13 04:32:00,56.0,55.0,30.02,SSW,200,0.0,-999.0,96,-99.99,,,-99.99,,2013-05-13 11:32:00,
2013-05-13 04:41:00,56.0,55.0,30.02,SSW,200,0.0,-999.0,96,-99.99,,,-99.99,,2013-05-13 11:41:00,
2013-05-13 04:52:00,56.0,55.0,30.02,WSW,238,0.0,-999.0,96,-99.99,,,-99.99,,2013-05-13 11:52:00,
2013-05-13 05:01:00,56.0,55.0,30.02,WSW,238,0.0,-999.0,96,-99.99,,,-99.99,,2013-05-13 12:01:00,
2013-05-13 05:11:00,56.0,55.0,30.02,WSW,238,0.0,-999.0,96,-99.99,,,-99.99,,2013-05-13 12:11:00,
2013-05-13 05:21:00,56.0,55.0,30.02,West,263,0.0,-999.0,95,-99.99,,,-99.99,,2013-05-13 12:21:00,
2013-05-13 05:32:00,57.0,56.0,30.03,West,263,0.0,-999.0,96,-99.99,,,-99.99,,2013-05-13 12:32:00,
2013-05-13 05:41:00,57.0,56.0,30.03,West,263,0.0,-999.0,96,-99.99,,,-99.99,,2013-05-13 12:41:00,
2013-05-13 05:52:00,57.0,56.0,30.03,SSW,196,0.0,-999.0,95,-99.99,,,-99.99,,2013-05-13 12:52:00,
2013-05-13 06:01:00,57.0,56.0,30.03,South,175,0.0,-999.0,95,-99.99,,,-99.99,,2013-05-13 13:01:00,
2013-05-13 06:11:00,57.0,56.0,30.03,South,175,0.0,-999.0,95,-99.99,,,-99.99,,2013-05-13 13:11:00,
2013-05-13 06:21:00,57.0,56.0,30.03,South,169,0.0,-999.0,95,-99.99,,,-99.99,,2013-05-13 13:21:00,
2013-05-13 06:31:00,56.0,55.0,30.02,South,176,0.0,-999.0,95,-99.99,,,-99.99,,2013-05-13 13:31:00,
2013-05-13 06:41:00,56.0,55.0,30.02,South,176,0.0,-999.0,95,-99.99,,,-99.99,,2013-05-13 13:41:00,
2013-05-13 06:52:00,56.0,55.0,30.02,South,176,0.0,-999.0,96,-99.99,,,-99.99,,2013-05-13 13:52:00,
2013-05-13 07:01:00,56.0,55.0,30.02,South,176,0.0,-999.0,96,-99.99,,,-99.99,,2013-05-13 14:01:00,
2013-05-13 07:11:00,56.0,55.0,30.02,South,176,0.0,-999.0,96,-99.99,,,-99.99,,2013-05-13 14:11:00,
2013-05-13 07:22:00,57.0,56.0,30.01,SW,234,0.0,-999.0,96,-99.99,,,-99.99,,2013-05-13 14:22:00,
2013-05-13 07:31:00,57.0,56.0,30.02,SW,234,0.0,-999.0,96,-99.99,,,-99.99,,2013-05-13 14:31:00,
2013-05-13 07:41:00,57.0,56.0,30.02,SW,234,0.0,-999.0,96,-99.99,,,-99.99,,2013-05-13 14:41:00,
2013-05-13 07:52:00,58.0,56.0,30.01,SSW,192,0.0,-999.0,94,-99.99,,,-99.99,,2013-05-13 14:52:00,
2013-05-13 08:01:00,58.0,56.0,30.01,SSW,192,0.0,-999.0,94,-99.99,,,-99.99,,2013-05-13 15:01:00,
2013-05-13 08:11:00,58.0,56.0,30.01,SSW,192,0.0,-999.0,94,-99.99,,,-99.99,,2013-05-13 15:11:00,
2013-05-13 08:21:00,59.0,57.0,30.01,SSW,192,0.0,-999.0,92,-99.99,,,-99.99,,2013-05-13 15:21:00,
2013-05-13 08:31:00,59.0,56.0,30.01,SSW,192,0.0,-999.0,91,-99.99,,,-99.99,,2013-05-13 15:31:00,
2013-05-13 08:42:00,59.0,56.0,30.01,SSW,192,0.0,-999.0,91,-99.99,,,-99.99,,2013-05-13 15:42:00,
2013-05-13 08:53:00,59.0,56.0,30.01,SE,146,0.0,-999.0,91,-99.99,,,-99.99,,2013-05-13 15:53:00,
2013-05-13 09:03:00,59.0,56.0,30.01,South,173,0.0,-999.0,90,-99.99,,,-99.99,,2013-05-13 16:03:00,
2013-05-13 09:11:00,59.0,56.0,30.01,South,173,0.0,-999.0,90,-99.99,,,-99.99,,2013-05-13 16:11:00,
2013-05-13 09:21:00,59.0,56.0,30.01,SE,140,0.0,-999.0,90,-99.99,,,-99.99,,2013-05-13 16:21:00,
2013-05-13 09:33:00,60.0,57.0,30.01,South,183,0.0,-999.0,89,-99.99,,,-99.99,,2013-05-13 16:33:00,
2013-05-13 09:42:00,59.0,55.0,30.01,South,186,0.0,-999.0,88,-99.99,,,-99.99,,2013-05-13 16:42:00,
2013-05-13 09:52:00,59.0,55.0,30.01,South,186,0.0,-999.0,88,-99.99,,,-99.99,,2013-05-13 16:52:00,
2013-05-13 10:02:00,59.0,56.0,30.00,SE,124,0.0,-999.0,89,-99.99,,,-99.99,,2013-05-13 17:02:00,
2013-05-13 10:12:00,59.0,56.0,30.00,SE,124,0.0,-999.0,89,-99.99,,,-99.99,,2013-05-13 17:12:00,
2013-05-13 10:21:00,60.0,56.0,29.99,SSE,148,0.0,-999.0,88,-99.99,,,-99.99,,2013-05-13 17:21:00,
2013-05-13 10:32:00,61.0,57.0,29.99,SE,143,0.0,-999.0,88,-99.99,,,-99.99,,2013-05-13 17:32:00,
2013-05-13 10:41:00,61.0,57.0,29.99,SE,143,0.0,-999.0,88,-99.99,,,-99.99,,2013-05-13 17:41:00,
2013-05-13 10:54:00,61.0,57.0,29.98,South,186,0.0,-999.0,86,-99.99,,,-99.99,,2013-05-13 17:54:00,
2013-05-13 11:03:00,61.0,57.0,29.98,South,190,0.0,-999.0,88,-99.99,,,-99.99,,2013-05-13 18:03:00,
2013-05-13 11:12:00,61.0,57.0,29.98,South,190,0.0,-999.0,88,-99.99,,,-99.99,,2013-05-13 18:12:00,
2013-05-13 11:22:00,62.0,58.0,29.98,South,171,0.0,-999.0,88,-99.99,,,-99.99,,2013-05-13 18:22:00,
2013-05-13 11:32:00,65.0,60.0,29.98,South,171,0.0,-999.0,84,-99.99,,,-99.99,,2013-05-13 18:32:00,
2013-05-13 11:42:00,66.0,58.0,29.96,SSE,163,0.0,-999.0,76,-99.99,,,-99.99,,2013-05-13 18:42:00,
2013-05-13 11:51:00,66.0,58.0,29.96,SSE,163,0.0,-999.0,76,-99.99,,,-99.99,,2013-05-13 18:51:00,
2013-05-13 12:01:00,67.0,57.0,29.95,SSW,204,1.0,-999.0,71,-99.99,,,-99.99,,2013-05-13 19:01:00,
2013-05-13 12:11:00,67.0,57.0,29.95,SSW,204,1.0,-999.0,71,-99.99,,,-99.99,,2013-05-13 19:11:00,
2013-05-13 12:21:00,65.0,56.0,29.94,South,184,2.0,-999.0,73,-99.99,,,-99.99,,2013-05-13 19:21:00,
2013-05-13 12:32:00,65.0,56.0,29.94,South,178,1.0,-999.0,74,-99.99,,,-99.99,,2013-05-13 19:32:00,
2013-05-13 12:43:00,65.0,57.0,29.94,SSW,197,0.0,-999.0,75,-99.99,,,-99.99,,2013-05-13 19:43:00,
2013-05-13 12:53:00,65.0,57.0,29.94,SSW,197,0.0,-999.0,75,-99.99,,,-99.99,,2013-05-13 19:53:00,
2013-05-13 13:01:00,65.0,57.0,29.94,SSE,148,0.0,-999.0,76,-99.99,,,-99.99,,2013-05-13 20:01:00,
2013-05-13 13:11:00,65.0,57.0,29.94,SSE,148,0.0,-999.0,76,-99.99,,,-99.99,,2013-05-13 20:11:00,
2013-05-13 13:23:00,64.0,57.0,29.94,South,184,1.0,-999.0,77,-99.99,,,-99.99,,2013-05-13 20:23:00,
2013-05-13 13:33:00,65.0,57.0,29.93,SE,139,1.0,-999.0,76,-99.99,,,-99.99,,2013-05-13 20:33:00,
2013-05-13 13:44:00,65.0,57.0,29.93,SE,139,1.0,-999.0,76,-99.99,,,-99.99,,2013-05-13 20:44:00,
2013-05-13 13:53:00,61.0,56.0,29.95,South,179,0.0,-999.0,83,-99.99,,,-99.99,,2013-05-13 20:53:00,
2013-05-13 14:02:00,58.0,54.0,29.97,SSE,167,1.0,-999.0,86,-99.99,,,-99.99,,2013-05-13 21:02:00,
2013-05-13 14:14:00,58.0,54.0,29.97,SSE,167,1.0,-999.0,86,-99.99,,,-99.99,,2013-05-13 21:14:00,
2013-05-13 14:23:00,57.0,55.0,29.98,SSE,148,1.0,-999.0,94,-99.99,,,-99.99,,2013-05-13 21:23:00,
2013-05-13 14:33:00,58.0,55.0,29.97,SSW,198,1.0,-999.0,91,-99.99,,,-99.99,,2013-05-13 21:33:00,
2013-05-13 14:43:00,58.0,55.0,29.97,SSW,198,1.0,-999.0,91,-99.99,,,-99.99,,2013-05-13 21:43:00,
2013-05-13 14:53:00,59.0,55.0,29.98,SSW,209,2.0,-999.0,88,-99.99,,,-99.99,,2013-05-13 21:53:00,
2013-05-13 15:02:00,59.0,55.0,29.97,South,180,2.0,-999.0,87,-99.99,,,-99.99,,2013-05-13 22:02:00,
2013-05-13 15:12:00,59.0,55.0,29.97,South,180,2.0,-999.0,87,-99.99,,,-99.99,,2013-05-13 22:12:00,
2013-05-13 15:22:00,60.0,54.0,29.98,SSW,198,3.0,-999.0,81,-99.99,,,-99.99,,2013-05-13 22:22:00,
2013-05-13 15:32:00,58.0,54.0,29.99,SE,144,2.0,-999.0,88,-99.99,,,-99.99,,2013-05-13 22:32:00,
2013-05-13 15:42:00,59.0,54.0,29.99,SSE,166,3.0,-999.0,84,-99.99,,,-99.99,,2013-05-13 22:42:00,
2013-05-13 15:52:00,59.0,54.0,29.99,SSE,166,3.0,-999.0,84,-99.99,,,-99.99,,2013-05-13 22:52:00,
2013-05-13 16:01:00,60.0,55.0,29.99,SSW,198,1.0,-999.0,83,-99.99,,,-99.99,,2013-05-13 23:01:00,
2013-05-13 16:12:00,60.0,55.0,29.99,SSW,198,1.0,-999.0,83,-99.99,,,-99.99,,2013-05-13 23:12:00,
2013-05-13 16:23:00,60.0,53.0,30.00,South,182,3.0,-999.0,79,-99.99,,,-99.99,,2013-05-13 23:23:00,
2013-05-13 16:33:00,59.0,53.0,30.00,SSE,159,4.0,-999.0,81,-99.99,,,-99.99,,2013-05-13 23:33:00,
2013-05-13 16:42:00,59.0,53.0,30.00,SSE,159,4.0,-999.0,81,-99.99,,,-99.99,,2013-05-13 23:42:00,
2013-05-13 16:54:00,59.0,51.0,30.01,South,180,2.0,-999.0,76,-99.99,,,-99.99,,2013-05-13 23:54:00,
2013-05-13 17:02:00,59.0,51.0,30.02,SSE,150,3.0,-999.0,74,-99.99,,,-99.99,,2013-05-14 00:02:00,
2013-05-13 17:12:00,59.0,51.0,30.02,SSE,150,3.0,-999.0,74,-99.99,,,-99.99,,2013-05-14 00:12:00,
2013-05-13 17:22:00,58.0,51.0,30.03,SSE,155,4.0,-999.0,78,-99.99,,,-99.99,,2013-05-14 00:22:00,
2013-05-13 17:31:00,59.0,51.0,30.04,SSW,202,3.0,-999.0,75,-99.99,,,-99.99,,2013-05-14 00:31:00,
2013-05-13 17:41:00,59.0,51.0,30.04,SSW,202,3.0,-999.0,75,-99.99,,,-99.99,,2013-05-14 00:41:00,
2013-05-13 17:51:00,58.0,49.0,30.04,SE,142,2.0,-999.0,71,-99.99,,,-99.99,,2013-05-14 00:51:00,
2013-05-13 18:01:00,58.0,48.0,30.04,SE,142,3.0,-999.0,70,-99.99,,,-99.99,,2013-05-14 01:01:00,
2013-05-13 18:11:00,58.0,48.0,30.04,SE,142,3.0,-999.0,70,-99.99,,,-99.99,,2013-05-14 01:11:00,
2013-05-13 18:21:00,57.0,48.0,30.06,South,173,3.0,-999.0,71,-99.99,,,-99.99,,2013-05-14 01:21:00,
2013-05-13 18:31:00,57.0,48.0,30.07,South,190,3.0,-999.0,73,-99.99,,,-99.99,,2013-05-14 01:31:00,
2013-05-13 18:43:00,57.0,48.0,30.07,South,190,3.0,-999.0,73,-99.99,,,-99.99,,2013-05-14 01:43:00,
2013-05-13 18:53:00,57.0,48.0,30.09,SE,132,2.0,-999.0,73,-99.99,,,-99.99,,2013-05-14 01:53:00,
2013-05-13 19:01:00,56.0,47.0,30.09,SSW,212,2.0,-999.0,73,-99.99,,,-99.99,,2013-05-14 02:01:00,
2013-05-13 19:11:00,56.0,47.0,30.11,South,184,2.0,-999.0,73,-99.99,,,-99.99,,2013-05-14 02:11:00,
2013-05-13 19:21:00,56.0,47.0,30.11,South,184,2.0,-999.0,73,-99.99,,,-99.99,,2013-05-14 02:21:00,
2013-05-13 19:31:00,56.0,47.0,30.11,SSW,200,3.0,-999.0,73,-99.99,,,-99.99,,2013-05-14 02:31:00,
2013-05-13 19:42:00,56.0,47.0,30.11,SSW,200,3.0,-999.0,73,-99.99,,,-99.99,,2013-05-14 02:42:00,
2013-05-13 19:52:00,56.0,46.0,30.13,SSW,193,2.0,-999.0,69,-99.99,,,-99.99,,2013-05-14 02:52:00,
2013-05-13 20:01:00,56.0,45.0,30.13,SSW,198,3.0,-999.0,67,-99.99,,,-99.99,,2013-05-14 03:01:00,
2013-05-13 20:11:00,56.0,45.0,30.13,SSW,198,3.0,-999.0,67,-99.99,,,-99.99,,2013-05-14 03:11:00,
2013-05-13 20:21:00,55.0,45.0,30.13,SSW,193,2.0,-999.0,69,-99.99,,,-99.99,,2013-05-14 03:21:00,
2013-05-13 20:32:00,55.0,45.0,30.13,South,188,3.0,-999.0,70,-99.99,,,-99.99,,2013-05-14 03:32:00,
2013-05-13 20:42:00,55.0,45.0,30.13,South,188,3.0,-999.0,70,-99.99,,,-99.99,,2013-05-14 03:42:00,
2013-05-13 20:53:00,54.0,45.0,30.14,SSE,153,3.0,-999.0,72,-99.99,,,-99.99,,2013-05-14 03:53:00,
2013-05-13 21:02:00,54.0,45.0,30.16,South,173,3.0,-999.0,72,-99.99,,,-99.99,,2013-05-14 04:02:00,
2013-05-13 21:12:00,54.0,45.0,30.16,South,173,3.0,-999.0,72,-99.99,,,-99.99,,2013-05-14 04:12:00,
2013-05-13 21:22:00,54.0,46.0,30.17,SE,126,1.0,-999.0,74,-99.99,,,-99.99,,2013-05-14 04:22:00,
2013-05-13 21:32:00,54.0,46.0,30.18,SSW,198,2.0,-999.0,74,-99.99,,,-99.99,,2013-05-14 04:32:00,
2013-05-13 21:42:00,54.0,46.0,30.18,SSW,198,2.0,-999.0,74,-99.99,,,-99.99,,2013-05-14 04:42:00,
2013-05-13 21:53:00,53.0,45.0,30.18,SSW,198,1.0,-999.0,74,-99.99,,,-99.99,,2013-05-14 04:53:00,
2013-05-13 22:01:00,53.0,45.0,30.18,SSE,163,2.0,-999.0,74,-99.99,,,-99.99,,2013-05-14 05:01:00,
2013-05-13 22:12:00,53.0,45.0,30.18,SSE,163,2.0,-999.0,74,-99.99,,,-99.99,,2013-05-14 05:12:00,
2013-05-13 22:21:00,53.0,45.0,30.19,SSW,195,1.0,-999.0,75,-99.99,,,-99.99,,2013-05-14 05:21:00,
2013-05-13 22:32:00,53.0,45.0,30.19,South,182,1.0,-999.0,74,-99.99,,,-99.99,,2013-05-14 05:32:00,
2013-05-13 22:42:00,53.0,45.0,30.19,South,182,1.0,-999.0,74,-99.99,,,-99.99,,2013-05-14 05:42:00,
2013-05-13 22:52:00,52.0,45.0,30.19,South,182,1.0,-999.0,76,-99.99,,,-99.99,,2013-05-14 05:52:00,
2013-05-13 23:01:00,52.0,45.0,30.19,SSW,192,1.0,-999.0,76,-99.99,,,-99.99,,2013-05-14 06:01:00,
2013-05-13 23:12:00,52.0,45.0,30.19,SSW,192,1.0,-999.0,76,-99.99,,,-99.99,,2013-05-14 06:12:00,
2013-05-13 23:21:00,52.0,45.0,30.19,SSE,152,1.0,-999.0,78,-99.99,,,-99.99,,2013-05-14 06:21:00,
2013-05-13 23:31:00,52.0,46.0,30.19,SE,143,0.0,-999.0,79,-99.99,,,-99.99,,2013-05-14 06:31:00,
2013-05-13 23:42:00,52.0,46.0,30.19,SE,143,0.0,-999.0,79,-99.99,,,-99.99,,2013-05-14 06:42:00,
2013-05-13 23:52:00,51.0,45.0,30.19,SSE,161,0.0,-999.0,80,-99.99,,,-99.99,,2013-05-14 06:52:00,